Regional Weather Roundup
Issued by NWS State College, PA

Home | Current Version | Previous Version | Graphics & Text | Print | Product List | Glossary On
Versions: 1 2 3 4 5 6 7 8 9 10 11 12 13 14 15 16 17 18 19 20 21 22 23 24 25 26 27 28 29 30 31 32 33 34 35 36 37 38 39 40 41 42 43 44 45 46 47 48 49 50
000
ASUS41 KCTP 230803
RWRCTP

REGIONAL WEATHER ROUNDUP
NATIONAL WEATHER SERVICE STATE COLLEGE PA
400 AM EDT WED JUL 23 2014

Note: "fair" indicates few or no clouds below 12,000 feet with no
significant weather and/or obstructions to visibility.

* = STATION THAT DOES NOT REPORT PRECIPITATION /E.G. RAIN...SNOW...ETC/
    THUNDER OR FOG.

PAZ002>004-007>009-013>016-020>023-029>032-230900-
WESTERN PENNSYLVANIA

CITY           SKY/WX    TMP DP  RH WIND       PRES   REMARKS
ERIE           PTCLDY    76  67  73 S8        29.91F
MEADVILLE      NOT AVBL
FRANKLIN*      MOCLDY    70  64  83 SW7       30.00F
NEW CASTLE       N/A     72  69  90 CALM      29.98F
BEAVER COUNTY  NOT AVBL
BUTLER*        CLEAR     72  66  83 CALM      30.00F
PITTSBURGH INT CLEAR     75  69  81 SW6       29.98F
PITTSBURGH     CLEAR     72  67  84 S7        29.99F
INDIANA*       CLOUDY    70  68  94 CALM      30.05F
LATROBE        CLEAR     70  70 100 SW3       30.01F
WASHINGTON CO* CLEAR     66  66 100 CALM      30.01F
$$

PAZ004>006-010>012-017>019-024>028-033>037-041-042-045-046-049>053-230900-
CENTRAL PENNSYLVANIA

CITY           SKY/WX    TMP DP  RH WIND       PRES   REMARKS
BRADFORD       MOCLDY    69  66  90 CALM      30.02F
DUBOIS         CLEAR     71  67  87 SW3       30.01F
CLEARFIELD     FOG       66  66 100 CALM      30.02F VSB 1/4
JOHNSTOWN      CLEAR     69  66  90 S6        30.06F
ALTOONA        CLEAR     70  69  97 CALM      30.04F
STATE COLLEGE  CLEAR     70  68  95 SW3       30.01F
WILLIAMSPORT   CLEAR     70  67  90 CALM      29.97F
SELINSGROVE    CLEAR     71  68  90 S3        29.99F
FT INDIANTOWN  CLEAR     67  67  99 NE1       30.01F
CAPITAL CITY   CLEAR     73  68  84 W5        30.00F
HARRISBURG     PTCLDY    75  68  78 VRB5      29.99F
YORK           CLOUDY    72  68  87 CALM      30.01F
$$

PAZ038>040-043-044-047-048-054-055-060>062-067>071-230900-
EASTERN PENNSYLVANIA

CITY           SKY/WX    TMP DP  RH WIND       PRES   REMARKS
SCRANTON       PTCLDY    72  66  81 SW3       30.00F
MOUNT POCONO   PTCLDY    67  65  93 W7        30.05F
ALLENTOWN      CLEAR     70  66  87 CALM      30.01F
QUAKERTOWN*    SUNNY     66  64  94 S3        30.03F
READING        PTCLDY    72  65  78 S5        30.00F
LANCASTER      CLEAR     69  65  86 S3        30.02F
COATESVILLE    SUNNY     72  72 100 W3        30.04F
POTTSTOWN      CLEAR     68  65  90 CALM      30.03F
BLUE BELL      CLEAR     70  66  88 CALM      30.01F
DOYLESTOWN     CLEAR     68  64  87 CALM      30.02F
WILLOW GROVE   NOT AVBL
NORTH PHILA    CLEAR     73  64  73 CALM      30.03F
PHILADELPHIA   PTCLDY    73  64  73 S8        30.02F
$$


USA.gov is the U.S. government's official web portal to all federal, state and local government web resources and services.